Location: Dieppe
(49.9230°N, 1.0775°E)
Time: 03:50:05
(UTC+02:00)

ISS - Pass Details

Date: 22 May 2018
Orbit: 402 x 406 km, 51.6° (Epoch: 18 June)

Event Time Altitude Azimuth Distance (km) Brightness Sun altitude
Rises 01:21:47 0° 268° (W) 2,320 0.1 -19.4°
Reaches altitude 10° 01:23:52 10° 271° (W) 1,460 -0.9 -19.5°
Maximum altitude 01:27:07 64° 354° (N) 451 -3.5 -19.5°
Drops below altitude 10° 01:30:22 10° 77° (ENE) 1,460 -0.9 -19.6°
Sets 01:32:28 0° 81° (E) 2,320 0.1 -19.6°
